Tracking 28126 objects as of 1-Oct-2023
HD Live streaming from Space Station
objects crossing your sky now

STARLINK-6044

Track STARLINK-6044 now!
10-day predictions
STARLINK-6044 is classified as:


NORAD ID: 56479
Int'l Code: 2023-064AH
Perigee: 574.7 km
Apogee: 577.7 km
Inclination: 70.0 °
Period: 96.0 minutes
Semi major axis: 6947 km
RCS: Unknown
Launch date: May 10, 2023
Source: United States (US)
Launch site: AIR FORCE WESTERN TEST RANGE (AFWTR)
Your satellite tracking list
Your tracking list is empty




NASA's NSSDC Master Catalog

Two Line Element Set (TLE):
1 56479U 23064AH  23273.58237099  .00000322  00000-0  33955-4 0  9992
2 56479  70.0009 211.1075 0002175 273.5948  86.4963 14.99302076 22628
Source of the keplerian elements: AFSPC